Weather in Kamenka

Russia / Irkutsk Oblast     54°55′53″N   98°49′32″E
temp.,
°C
wind,
m/s
gust,
m/s
humid.,
%
clouds,
%
prec.,
mm/h
press.,
hPa
HPBL,
m
11 august, thu
thu1123:00+13wsw2287100 0.0 101049
02:00+13ssw2493100 0.4 101085
05:00+13ssw119582 0.5 100922
08:00+14wsw27941 1.7 1010325
11:00+16wnw59827 1.1 1010945
14:00+20nw585134 1.3 10101703
17:00+19nnw365795 0.0 10111198
20:00+17wsw11730 0.0 101111
12 august, fri
fri1223:00+13sw22780 0.0 101222
02:00+12sw22785 0.0 101118
05:00+11sw227965 0.0 101127
08:00+16ssw11675 0.0 101091
11:00+22e21440 0.0 10081173
14:00+24ene2238100 0.0 10072292
17:00+20n3561100 0.0 1007350
20:00+16wnw2283100 0.6 100821
13 august, sat
sat1323:00+13w239699 3.2 101057
02:00+12wnw2397100 3.2 101045
05:00+11w219729 0.0 101018
08:00+14ssw019148 0.1 101057
11:00+18ene215569 0.2 10091342
14:00+19ne214896 0.3 10081311
17:00+19nne224899 0.0 10081231
20:00+17ese11675 0.0 100815
14 august, sun
sun1423:00+12ssw217848 0.0 100814
02:00+10ssw11840 0.0 100811
05:00+10ssw119199 0.0 100714
08:00+14sse1276100 0.0 1006110
11:00+19ese1355100 0.0 1005710
14:00+17sw0184100 1.5 1005203
17:00+20nw1368100 0.3 1004676
20:00+15nw119349 2.2 100411
15 august, mon
mon1523:00+12sw2295100 1.4 100419
02:00+12sw2292100 1.4 100436
05:00+12sw2291100 0.0 100351
08:00+12ssw2493100 0.3 100490
11:00+12w2892100 2.4 1005450
14:00+18nw4841100 2.4 10042178
17:00+16wnw145591 0.0 10051091
20:00+13wnw1173100 0.2 100512